Weather History for Southern Pines, NC

Change the Weather History Date:

Saturday, March 22, 2014

  Actual Average Record
Temperature  
Mean Temperature 16 °C -  
Max Temperature 24 °C 16 °C 28 °C (2011)
Min Temperature 8 °C 5 °C -7 °C (2013)
Degree Days  
Heating Degree Days 4    
Growing Degree Days 10 (Base 50)    
Moisture  
Dew Point 3 °C    
Average Humidity 47    
Maximum Humidity 76    
Minimum Humidity 25    
Precipitation  
Precipitation 0.00 mm - - ()
Sea Level Pressure  
Sea Level Pressure 1016 hPa    
Wind  
Wind Speed 14 km/h (WSW)    
Max Wind Speed 24 km/h    
Max Gust Speed 37 km/h    
Visibility 16 kilometers    
Events      
Averages and records for this station are not official NWS values.
T = Trace of Precipitation, MM = Missing Value Source: NWS Daily Summary

Daily Weather History Graph

Daily Weather History Graph

Search for Another Location

Airport:

Trip Planner

Search our weather history database for the weather conditions in past years. The results will help you decide how hot, cold, wet, or windy it might be!

Date:

Astronomy

Mar. 22, 2014 Rise Set
Actual Time 7:18 AM EDT 7:30 PM EDT
Civil Twilight 6:53 AM EDT 7:56 PM EDT
Nautical Twilight 6:23 AM EDT 8:25 PM EDT
Astronomical Twilight 5:53 AM EDT 8:56 PM EDT
Moon 12:38 AM EDT (3/22) 11:10 AM EDT (3/22)
Length of Visible Light 13h 03m
Length of Day
12h 12m
Waning Gibbous, 65% of the Moon is Illuminated
Mar 22
Waning Gibbous
Mar 23
Last Quarter
Mar 30
New
Apr 7
First Quarter
Apr 15
Full

Hourly Weather History & Observations

Time (EDT) Temp. Windchill Dew Point Humidity Pressure Visibility Wind Dir Wind Speed Gust Speed Precip Events Conditions
12:15 AM 12.0 °C - -1.0 °C 41% 1018.8 hPa 16.1 km SSW 18.5 km/h / 5.1 m/s 25.9 km/h / 7.2 m/s N/A   Clear
12:35 AM 12.0 °C - -1.0 °C 41% 1018.8 hPa 16.1 km SSW 16.7 km/h / 4.6 m/s - N/A   Clear
12:55 AM 12.0 °C - -1.0 °C 41% 1018.5 hPa 16.1 km South 13.0 km/h / 3.6 m/s - N/A   Clear
1:15 AM 11.0 °C - -1.0 °C 44% 1018.2 hPa 16.1 km South 13.0 km/h / 3.6 m/s - N/A   Clear
1:35 AM 11.0 °C - 0.0 °C 47% 1017.8 hPa 16.1 km South 16.7 km/h / 4.6 m/s - N/A   Clear
1:55 AM 11.0 °C - 1.0 °C 50% 1017.8 hPa 16.1 km SSW 16.7 km/h / 4.6 m/s - N/A   Clear
2:15 AM 11.0 °C - 1.0 °C 50% 1017.8 hPa 16.1 km SSW 18.5 km/h / 5.1 m/s - N/A   Clear
2:35 AM 11.0 °C - 1.0 °C 50% 1017.5 hPa 16.1 km SSW 18.5 km/h / 5.1 m/s - N/A   Clear
2:55 AM 11.0 °C - 2.0 °C 54% 1017.5 hPa 16.1 km SSW 16.7 km/h / 4.6 m/s - N/A   Clear
3:15 AM 11.0 °C - 2.0 °C 54% 1017.5 hPa 16.1 km SSW 16.7 km/h / 4.6 m/s - N/A   Clear
3:35 AM 10.0 °C - 2.0 °C 58% 1017.5 hPa 16.1 km SW 16.7 km/h / 4.6 m/s - N/A   Clear
3:55 AM 9.0 °C - 2.0 °C 62% 1017.2 hPa 16.1 km SW 14.8 km/h / 4.1 m/s - N/A   Clear
4:15 AM 9.0 °C - 3.0 °C 66% 1017.2 hPa 16.1 km SW 14.8 km/h / 4.1 m/s - N/A   Clear
4:35 AM 9.0 °C - 3.0 °C 66% 1017.2 hPa 16.1 km SW 13.0 km/h / 3.6 m/s - N/A   Clear
4:55 AM 9.0 °C - 3.0 °C 66% 1016.8 hPa 16.1 km SW 11.1 km/h / 3.1 m/s - N/A   Clear
5:15 AM 9.0 °C - 3.0 °C 66% 1016.8 hPa 16.1 km SW 11.1 km/h / 3.1 m/s - N/A   Clear
5:35 AM 9.0 °C - 3.0 °C 66% 1016.8 hPa 16.1 km SW 13.0 km/h / 3.6 m/s - N/A   Clear
5:55 AM 9.0 °C - 4.0 °C 71% 1017.2 hPa 16.1 km SW 11.1 km/h / 3.1 m/s - N/A   Clear
6:15 AM 9.0 °C - 4.0 °C 71% 1017.2 hPa 16.1 km SW 11.1 km/h / 3.1 m/s - N/A   Clear
6:35 AM 9.0 °C - 4.0 °C 71% 1017.2 hPa 16.1 km SW 11.1 km/h / 3.1 m/s - N/A   Clear
6:55 AM 8.0 °C 6.4 °C 4.0 °C 76% 1017.2 hPa 16.1 km WSW 9.3 km/h / 2.6 m/s - N/A   Clear
7:15 AM 8.0 °C 6.4 °C 4.0 °C 76% 1017.5 hPa 16.1 km SW 9.3 km/h / 2.6 m/s - N/A   Clear
7:35 AM 8.0 °C 6.8 °C 4.0 °C 76% 1017.5 hPa 16.1 km SW 7.4 km/h / 2.1 m/s - N/A   Clear
7:55 AM 8.0 °C 6.8 °C 4.0 °C 76% 1017.8 hPa 16.1 km WSW 7.4 km/h / 2.1 m/s - N/A   Clear
8:15 AM 9.0 °C - 5.0 °C 76% 1017.8 hPa 16.1 km SW 11.1 km/h / 3.1 m/s - N/A   Clear
8:35 AM 11.0 °C - 6.0 °C 71% 1017.8 hPa 16.1 km WSW 11.1 km/h / 3.1 m/s - N/A   Clear
8:55 AM 12.0 °C - 6.0 °C 67% 1017.8 hPa 16.1 km WSW 13.0 km/h / 3.6 m/s - N/A   Clear
9:15 AM 13.0 °C - 6.0 °C 63% 1017.8 hPa 16.1 km WSW 13.0 km/h / 3.6 m/s - N/A   Clear
9:35 AM 14.0 °C - 5.0 °C 55% 1017.8 hPa 16.1 km West 14.8 km/h / 4.1 m/s - N/A   Clear
9:55 AM 15.0 °C - 4.0 °C 48% 1017.8 hPa 16.1 km West 14.8 km/h / 4.1 m/s 25.9 km/h / 7.2 m/s N/A   Clear
10:15 AM 16.0 °C - 4.0 °C 45% 1018.2 hPa 16.1 km West 14.8 km/h / 4.1 m/s - N/A   Clear
10:35 AM 17.0 °C - 5.0 °C 45% 1017.8 hPa 16.1 km WSW 18.5 km/h / 5.1 m/s - N/A   Clear
10:55 AM 18.0 °C - 5.0 °C 42% 1017.5 hPa 16.1 km West 13.0 km/h / 3.6 m/s 31.5 km/h / 8.7 m/s N/A   Clear
11:15 AM 19.0 °C - 5.0 °C 40% 1017.5 hPa 16.1 km West 18.5 km/h / 5.1 m/s 29.6 km/h / 8.2 m/s N/A   Clear
11:35 AM 21.0 °C - 5.0 °C 35% 1017.5 hPa 16.1 km WSW 22.2 km/h / 6.2 m/s 27.8 km/h / 7.7 m/s N/A   Clear
11:55 AM 21.0 °C - 5.0 °C 35% 1017.2 hPa 16.1 km WSW 16.7 km/h / 4.6 m/s 31.5 km/h / 8.7 m/s N/A   Clear
12:15 PM 22.0 °C - 4.0 °C 31% 1017.2 hPa 16.1 km WSW 24.1 km/h / 6.7 m/s 35.2 km/h / 9.8 m/s N/A   Clear
12:35 PM 22.0 °C - 4.0 °C 31% 1016.8 hPa 16.1 km West 22.2 km/h / 6.2 m/s 33.3 km/h / 9.3 m/s N/A   Clear
12:55 PM 23.0 °C - 4.0 °C 29% 1016.5 hPa 16.1 km West 18.5 km/h / 5.1 m/s 31.5 km/h / 8.7 m/s N/A   Clear
1:15 PM 23.0 °C - 4.0 °C 29% 1016.1 hPa 16.1 km West 24.1 km/h / 6.7 m/s 33.3 km/h / 9.3 m/s N/A   Clear
1:35 PM 23.0 °C - 4.0 °C 29% 1015.8 hPa 16.1 km WSW 24.1 km/h / 6.7 m/s 31.5 km/h / 8.7 m/s N/A   Clear
1:55 PM 23.0 °C - 4.0 °C 29% 1015.5 hPa 16.1 km West 20.4 km/h / 5.7 m/s 25.9 km/h / 7.2 m/s N/A   Clear
2:15 PM 23.0 °C - 5.0 °C 31% 1015.1 hPa 16.1 km WSW 14.8 km/h / 4.1 m/s - N/A   Partly Cloudy
2:35 PM 23.0 °C - 4.0 °C 29% 1014.8 hPa 16.1 km WSW 18.5 km/h / 5.1 m/s 25.9 km/h / 7.2 m/s N/A   Partly Cloudy
2:55 PM 23.0 °C - 4.0 °C 29% 1014.4 hPa 16.1 km West 13.0 km/h / 3.6 m/s 25.9 km/h / 7.2 m/s N/A   Scattered Clouds
3:15 PM 24.0 °C - 3.0 °C 25% 1014.4 hPa 16.1 km WNW 18.5 km/h / 5.1 m/s 37.0 km/h / 10.3 m/s N/A   Partly Cloudy
3:35 PM 24.0 °C - 4.0 °C 27% 1014.1 hPa 16.1 km WNW 20.4 km/h / 5.7 m/s 31.5 km/h / 8.7 m/s N/A   Clear
3:55 PM 24.0 °C - 3.0 °C 25% 1014.4 hPa 16.1 km West 20.4 km/h / 5.7 m/s 31.5 km/h / 8.7 m/s N/A   Partly Cloudy
4:15 PM 24.0 °C - 4.0 °C 27% 1014.4 hPa 16.1 km West 16.7 km/h / 4.6 m/s 27.8 km/h / 7.7 m/s N/A   Partly Cloudy
4:35 PM 24.0 °C - 4.0 °C 27% 1014.4 hPa 16.1 km WSW 16.7 km/h / 4.6 m/s 25.9 km/h / 7.2 m/s N/A   Clear
4:55 PM 23.0 °C - 3.0 °C 27% 1014.4 hPa 16.1 km West 13.0 km/h / 3.6 m/s 25.9 km/h / 7.2 m/s N/A   Clear
5:15 PM 23.0 °C - 4.0 °C 29% 1014.4 hPa 16.1 km West 9.3 km/h / 2.6 m/s - N/A   Clear
5:35 PM 23.0 °C - 4.0 °C 29% 1014.4 hPa 16.1 km West 13.0 km/h / 3.6 m/s - N/A   Clear
5:55 PM 23.0 °C - 4.0 °C 29% 1014.4 hPa 16.1 km WSW 11.1 km/h / 3.1 m/s - N/A   Clear
6:15 PM 22.0 °C - 4.0 °C 31% 1014.1 hPa 16.1 km West 5.6 km/h / 1.5 m/s - N/A   Clear
6:35 PM 22.0 °C - 5.0 °C 33% 1014.1 hPa 16.1 km SW 9.3 km/h / 2.6 m/s - N/A   Clear
6:55 PM 21.0 °C - 4.0 °C 33% 1014.4 hPa 16.1 km WSW 11.1 km/h / 3.1 m/s - N/A   Partly Cloudy
7:15 PM 20.0 °C - 5.0 °C 37% 1014.1 hPa 16.1 km SSW 13.0 km/h / 3.6 m/s - N/A   Clear
7:35 PM 19.0 °C - 5.0 °C 40% 1014.1 hPa 16.1 km SSW 7.4 km/h / 2.1 m/s - N/A   Clear
7:55 PM 19.0 °C - 4.0 °C 37% 1014.4 hPa 16.1 km West 5.6 km/h / 1.5 m/s - N/A   Clear
8:15 PM 19.0 °C - 4.0 °C 37% 1014.4 hPa 16.1 km Calm Calm - N/A   Clear
8:35 PM 17.0 °C - 4.0 °C 42% 1014.4 hPa 16.1 km Calm Calm - N/A   Clear
8:55 PM 16.0 °C - 4.0 °C 45% 1014.8 hPa 16.1 km Calm Calm - N/A   Clear
9:15 PM 14.0 °C - 4.0 °C 51% 1015.1 hPa 16.1 km Calm Calm - N/A   Clear
9:35 PM 14.0 °C - 4.0 °C 51% 1015.5 hPa 16.1 km Calm Calm - N/A   Clear
9:55 PM 13.0 °C - 4.0 °C 54% 1015.5 hPa 16.1 km Calm Calm - N/A   Clear
10:15 PM 13.0 °C - 4.0 °C 54% 1015.5 hPa 16.1 km Calm Calm - N/A   Clear
10:35 PM 13.0 °C - 4.0 °C 54% 1015.5 hPa 16.1 km WSW 5.6 km/h / 1.5 m/s - N/A   Clear
10:55 PM 13.0 °C - 4.0 °C 54% 1015.5 hPa 16.1 km SW 9.3 km/h / 2.6 m/s - N/A   Clear
11:15 PM 13.0 °C - 4.0 °C 54% 1015.5 hPa 16.1 km WSW 5.6 km/h / 1.5 m/s - N/A   Clear
11:35 PM 13.0 °C - 4.0 °C 54% 1015.5 hPa 16.1 km SW 7.4 km/h / 2.1 m/s - N/A   Clear
11:55 PM 13.0 °C - 4.0 °C 54% 1015.5 hPa 16.1 km SW 5.6 km/h / 1.5 m/s - N/A   Clear